RYR31KK LICJ-LIMJ

Flight info

Callsign RYR31KK
Flight time 1h 13m
Altitude 38000
Route LURON DCT RONAB DCT RUVIP DCT BETOT DCT POKAV DCT TINTO DCT VELAD DCT ELB DCT BETEN/N0330F180 M729 IDONA
Aircraft B738/M-SDE3FGILRWY/SB1

Departure

Time 2026-05-08 14:50
Airport Falcone–Borsellino Airport (LICJ)

Arrival

Time 2026-05-08 16:04
Airport Genoa Cristoforo Colombo Airport (LIMJ)
Time Latitude Longitude Altitude Speed Heading
2026-05-08 14:26 38.18217 13.09895 52 ft 0 kts 67°
2026-05-08 14:45 38.18219 13.09903 50 ft 3 kts 67°
2026-05-08 14:45 38.18230 13.09951 52 ft 7 kts 98°
2026-05-08 14:46 38.18193 13.09995 52 ft 7 kts 137°
2026-05-08 14:46 38.18189 13.10055 52 ft 7 kts 70°
2026-05-08 14:46 38.18201 13.10121 52 ft 8 kts 99°
2026-05-08 14:46 38.18169 13.10176 52 ft 8 kts 122°
2026-05-08 14:47 38.18171 13.10240 52 ft 8 kts 67°
2026-05-08 14:47 38.18197 13.10314 50 ft 11 kts 67°
2026-05-08 14:47 38.18234 13.10425 49 ft 16 kts 67°
2026-05-08 14:47 38.18285 13.10579 52 ft 21 kts 67°
2026-05-08 14:48 38.18350 13.10771 48 ft 26 kts 67°
2026-05-08 14:48 38.18425 13.10992 50 ft 28 kts 66°
2026-05-08 14:48 38.18502 13.11221 52 ft 27 kts 66°
2026-05-08 14:48 38.18574 13.11437 52 ft 26 kts 67°
2026-05-08 14:49 38.18616 13.11610 52 ft 17 kts 91°
2026-05-08 14:49 38.18602 13.11752 47 ft 16 kts 97°
2026-05-08 14:49 38.18579 13.11878 52 ft 12 kts 129°
2026-05-08 14:49 38.18514 13.11867 50 ft 11 kts 234°
2026-05-08 14:50 38.18445 13.11660 49 ft 56 kts 248°
2026-05-08 14:50 38.18201 13.10937 50 ft 120 kts 247°
2026-05-08 14:50 38.17820 13.09763 177 ft 158 kts 250°
2026-05-08 14:50 38.17391 13.08475 819 ft 162 kts 249°
2026-05-08 14:51 38.16937 13.07115 1430 ft 172 kts 249°
2026-05-08 14:51 38.16450 13.05707 2062 ft 178 kts 248°
2026-05-08 14:51 38.15914 13.04156 2302 ft 205 kts 249°
2026-05-08 14:51 38.15729 13.02316 2433 ft 221 kts 287°
2026-05-08 14:52 38.16508 13.00567 2671 ft 241 kts 314°
2026-05-08 14:52 38.19524 12.98333 3846 ft 258 kts 333°
2026-05-08 14:52 38.21142 12.97321 4606 ft 261 kts 333°
2026-05-08 14:53 38.22782 12.96299 5306 ft 264 kts 332°
2026-05-08 14:53 38.24437 12.95264 6072 ft 266 kts 331°
2026-05-08 14:53 38.26097 12.94220 6830 ft 267 kts 330°
2026-05-08 14:53 38.27203 12.93523 7322 ft 269 kts 330°
2026-05-08 14:54 38.28884 12.92459 8075 ft 271 kts 329°
2026-05-08 14:54 38.30574 12.91388 8857 ft 273 kts 329°
2026-05-08 14:54 38.32282 12.90301 9634 ft 276 kts 328°
2026-05-08 14:54 38.34010 12.89201 10329 ft 282 kts 327°
2026-05-08 14:55 38.35832 12.88030 10530 ft 305 kts 327°
2026-05-08 14:55 38.37786 12.86774 10882 ft 320 kts 328°
2026-05-08 14:55 38.39794 12.85489 11520 ft 325 kts 328°
2026-05-08 14:55 38.41820 12.84197 12311 ft 326 kts 327°
2026-05-08 14:56 38.43861 12.82895 13024 ft 330 kts 327°
2026-05-08 14:56 38.45924 12.81576 13747 ft 333 kts 327°
2026-05-08 14:56 38.48006 12.80244 14457 ft 335 kts 327°
2026-05-08 14:56 38.50097 12.78904 15184 ft 337 kts 327°
2026-05-08 14:57 38.52199 12.77556 15920 ft 339 kts 327°
2026-05-08 14:57 38.54318 12.76196 16632 ft 342 kts 327°
2026-05-08 14:57 38.56453 12.74823 17326 ft 345 kts 326°
2026-05-08 14:57 38.58608 12.73436 18023 ft 348 kts 326°
2026-05-08 14:58 38.60781 12.72037 18652 ft 351 kts 326°
2026-05-08 14:58 38.62972 12.70625 19265 ft 354 kts 326°
2026-05-08 14:58 38.65178 12.69204 19864 ft 357 kts 326°
2026-05-08 14:58 38.67404 12.67767 20485 ft 360 kts 326°
2026-05-08 14:59 38.69650 12.66317 21060 ft 363 kts 327°
2026-05-08 14:59 38.74200 12.63377 22180 ft 369 kts 327°
2026-05-08 14:59 38.76503 12.61887 22740 ft 373 kts 327°
2026-05-08 15:00 38.78828 12.60382 23275 ft 376 kts 327°
2026-05-08 15:00 38.81188 12.58853 23615 ft 384 kts 327°
2026-05-08 15:00 38.83586 12.57300 23982 ft 388 kts 327°
2026-05-08 15:00 38.86007 12.55733 24449 ft 390 kts 327°
2026-05-08 15:01 38.88433 12.54161 24904 ft 392 kts 327°
2026-05-08 15:01 38.90876 12.52576 25346 ft 395 kts 327°
2026-05-08 15:01 38.93335 12.50977 25732 ft 398 kts 327°
2026-05-08 15:01 38.95816 12.49362 26130 ft 401 kts 327°
2026-05-08 15:02 38.98312 12.47736 26547 ft 403 kts 326°
2026-05-08 15:02 39.00819 12.46102 26950 ft 405 kts 326°
2026-05-08 15:02 39.03343 12.44456 27331 ft 408 kts 326°
2026-05-08 15:02 39.05883 12.42797 27714 ft 411 kts 326°
2026-05-08 15:03 39.08438 12.41127 28088 ft 413 kts 326°
2026-05-08 15:03 39.11007 12.39446 28456 ft 416 kts 326°
2026-05-08 15:03 39.13593 12.37753 28790 ft 419 kts 326°
2026-05-08 15:03 39.16196 12.36047 29156 ft 421 kts 326°
2026-05-08 15:04 39.18811 12.34333 29515 ft 423 kts 326°
2026-05-08 15:04 39.21442 12.32606 29860 ft 425 kts 326°
2026-05-08 15:04 39.24050 12.30893 30163 ft 427 kts 326°
2026-05-08 15:04 39.26704 12.29149 30477 ft 428 kts 326°
2026-05-08 15:05 39.29348 12.27411 30913 ft 425 kts 326°
2026-05-08 15:05 39.31976 12.25685 31398 ft 422 kts 325°
2026-05-08 15:05 39.34580 12.23972 31872 ft 419 kts 325°
2026-05-08 15:05 39.37174 12.22262 32256 ft 418 kts 324°
2026-05-08 15:06 39.39758 12.20555 32661 ft 417 kts 324°
2026-05-08 15:06 39.42329 12.18857 33125 ft 413 kts 324°
2026-05-08 15:06 39.44882 12.17169 33579 ft 410 kts 323°
2026-05-08 15:06 39.47418 12.15491 33960 ft 409 kts 323°
2026-05-08 15:07 39.49948 12.13814 34265 ft 408 kts 323°
2026-05-08 15:07 39.52472 12.12139 34579 ft 407 kts 323°
2026-05-08 15:07 39.54988 12.10470 34917 ft 405 kts 323°
2026-05-08 15:07 39.57486 12.08812 35273 ft 402 kts 323°
2026-05-08 15:08 39.59972 12.07160 35596 ft 401 kts 323°
2026-05-08 15:08 39.61614 12.06067 35785 ft 400 kts 323°
2026-05-08 15:08 39.64921 12.03865 36223 ft 398 kts 323°
2026-05-08 15:08 39.67386 12.02222 36476 ft 398 kts 323°
2026-05-08 15:09 39.69851 12.00576 36702 ft 398 kts 323°
2026-05-08 15:09 39.72312 11.98933 36990 ft 397 kts 323°
2026-05-08 15:09 39.74766 11.97295 37268 ft 396 kts 323°
2026-05-08 15:09 39.77216 11.95656 37482 ft 396 kts 323°
2026-05-08 15:10 39.79666 11.94017 37710 ft 396 kts 322°
2026-05-08 15:10 39.82112 11.92380 37978 ft 395 kts 322°
2026-05-08 15:10 39.87039 11.89090 38017 ft 401 kts 324°
2026-05-08 15:11 39.92282 11.86369 37987 ft 406 kts 329°
2026-05-08 15:11 39.97543 11.83851 37993 ft 401 kts 329°
2026-05-08 15:12 40.02741 11.81282 37990 ft 398 kts 328°
2026-05-08 15:12 40.07903 11.78702 37993 ft 397 kts 328°
2026-05-08 15:13 40.13052 11.76112 37993 ft 396 kts 328°
2026-05-08 15:13 40.18203 11.73515 37997 ft 397 kts 328°
2026-05-08 15:14 40.23369 11.70908 37999 ft 399 kts 328°
2026-05-08 15:14 40.28557 11.68286 38000 ft 401 kts 328°
2026-05-08 15:15 40.33774 11.65646 38011 ft 403 kts 328°
2026-05-08 15:15 40.39022 11.62986 38002 ft 406 kts 329°
2026-05-08 15:16 40.44301 11.60306 38007 ft 407 kts 329°
2026-05-08 15:16 40.49561 11.57630 38004 ft 409 kts 329°
2026-05-08 15:17 40.54874 11.54924 37982 ft 410 kts 329°
2026-05-08 15:17 40.60194 11.52209 37995 ft 410 kts 329°
2026-05-08 15:18 40.65514 11.49490 37993 ft 410 kts 329°
2026-05-08 15:18 40.70829 11.46769 37999 ft 409 kts 329°
2026-05-08 15:19 40.76133 11.44047 37993 ft 409 kts 329°
2026-05-08 15:19 40.81427 11.41326 38002 ft 408 kts 329°
2026-05-08 15:20 40.86716 11.38604 37996 ft 408 kts 329°
2026-05-08 15:20 40.91997 11.35881 37996 ft 407 kts 329°
2026-05-08 15:21 40.97267 11.33158 37996 ft 406 kts 329°
2026-05-08 15:21 41.02532 11.30432 38010 ft 407 kts 330°
2026-05-08 15:22 41.07808 11.27695 38003 ft 408 kts 330°
2026-05-08 15:22 41.13099 11.24946 38000 ft 409 kts 330°
2026-05-08 15:23 41.18370 11.22203 38000 ft 410 kts 330°
2026-05-08 15:23 41.23696 11.19427 38030 ft 412 kts 330°
2026-05-08 15:24 41.29088 11.16610 38003 ft 414 kts 330°
2026-05-08 15:24 41.34423 11.13820 37996 ft 415 kts 330°
2026-05-08 15:25 41.39809 11.10998 38000 ft 416 kts 330°
2026-05-08 15:25 41.45200 11.08169 38018 ft 417 kts 330°
2026-05-08 15:26 41.50600 11.05331 38000 ft 417 kts 331°
2026-05-08 15:26 41.56001 11.02494 37991 ft 417 kts 331°
2026-05-08 15:27 41.61395 10.99657 37991 ft 416 kts 330°
2026-05-08 15:27 41.66779 10.96818 37990 ft 416 kts 330°
2026-05-08 15:28 41.72157 10.93976 38001 ft 415 kts 331°
2026-05-08 15:28 41.77526 10.91134 37994 ft 415 kts 331°
2026-05-08 15:29 41.82890 10.88289 37993 ft 414 kts 331°
2026-05-08 15:29 41.88247 10.85444 37993 ft 414 kts 331°
2026-05-08 15:30 41.93602 10.82593 37996 ft 414 kts 331°
2026-05-08 15:30 41.98954 10.79739 37997 ft 414 kts 331°
2026-05-08 15:31 42.04308 10.76879 37995 ft 414 kts 331°
2026-05-08 15:31 42.09668 10.74009 37996 ft 415 kts 331°
2026-05-08 15:32 42.15034 10.71127 37998 ft 416 kts 331°
2026-05-08 15:32 42.20406 10.68236 37995 ft 416 kts 331°
2026-05-08 15:33 42.25793 10.65333 37996 ft 417 kts 331°
2026-05-08 15:33 42.31146 10.62443 37994 ft 417 kts 331°
2026-05-08 15:34 42.36576 10.59505 37995 ft 418 kts 331°
2026-05-08 15:34 42.41973 10.56580 37993 ft 418 kts 331°
2026-05-08 15:35 42.47373 10.53648 37993 ft 418 kts 331°
2026-05-08 15:35 42.50085 10.52172 37776 ft 422 kts 331°
2026-05-08 15:35 42.52811 10.50687 37510 ft 422 kts 331°
2026-05-08 15:36 42.55527 10.49209 37268 ft 419 kts 331°
2026-05-08 15:36 42.57307 10.48241 37074 ft 415 kts 331°
2026-05-08 15:36 42.60859 10.46307 36719 ft 408 kts 331°
2026-05-08 15:36 42.63449 10.44892 36468 ft 405 kts 331°
2026-05-08 15:37 42.66053 10.43465 36207 ft 402 kts 331°
2026-05-08 15:37 42.68626 10.42058 35908 ft 395 kts 330°
2026-05-08 15:37 42.71164 10.40669 35545 ft 391 kts 330°
2026-05-08 15:37 42.73690 10.39228 35170 ft 385 kts 326°
2026-05-08 15:38 42.76008 10.37587 34877 ft 378 kts 324°
2026-05-08 15:38 42.78291 10.35857 34505 ft 374 kts 323°
2026-05-08 15:38 42.80549 10.34113 34137 ft 372 kts 323°
2026-05-08 15:38 42.82789 10.32383 33735 ft 369 kts 323°
2026-05-08 15:39 42.85017 10.30670 33342 ft 366 kts 323°
2026-05-08 15:39 42.87228 10.28981 32977 ft 362 kts 323°
2026-05-08 15:39 42.89416 10.27315 32614 ft 359 kts 323°
2026-05-08 15:39 42.91587 10.25665 32274 ft 355 kts 323°
2026-05-08 15:40 42.93738 10.24032 31912 ft 352 kts 323°
2026-05-08 15:40 42.95871 10.22414 31570 ft 349 kts 323°
2026-05-08 15:40 42.97986 10.20807 31244 ft 346 kts 323°
2026-05-08 15:40 43.00084 10.19213 30918 ft 345 kts 323°
2026-05-08 15:41 43.02218 10.17581 30604 ft 361 kts 323°
2026-05-08 15:41 43.03697 10.16444 30369 ft 375 kts 323°
2026-05-08 15:41 43.06034 10.14648 29992 ft 395 kts 324°
2026-05-08 15:41 43.08492 10.12763 29525 ft 414 kts 324°
2026-05-08 15:42 43.11042 10.10817 29046 ft 422 kts 325°
2026-05-08 15:42 43.13604 10.08872 28616 ft 420 kts 325°
2026-05-08 15:42 43.16161 10.06932 28168 ft 420 kts 325°
2026-05-08 15:42 43.18714 10.04989 27739 ft 419 kts 326°
2026-05-08 15:43 43.21261 10.03044 27302 ft 420 kts 326°
2026-05-08 15:43 43.23811 10.01092 26857 ft 420 kts 326°
2026-05-08 15:43 43.26357 9.99140 26420 ft 419 kts 326°
2026-05-08 15:43 43.28899 9.97188 25993 ft 418 kts 326°
2026-05-08 15:44 43.31437 9.95237 25570 ft 418 kts 327°
2026-05-08 15:44 43.33970 9.93288 25147 ft 417 kts 327°
2026-05-08 15:44 43.36496 9.91343 24724 ft 416 kts 327°
2026-05-08 15:44 43.39017 9.89399 24305 ft 415 kts 327°
2026-05-08 15:45 43.41536 9.87455 23867 ft 415 kts 328°
2026-05-08 15:45 43.44058 9.85507 23384 ft 416 kts 328°
2026-05-08 15:45 43.46582 9.83556 22914 ft 415 kts 328°
2026-05-08 15:45 43.49086 9.81619 22476 ft 410 kts 328°
2026-05-08 15:46 43.51547 9.79715 22078 ft 401 kts 328°
2026-05-08 15:46 43.53964 9.77842 21672 ft 397 kts 328°
2026-05-08 15:46 43.56369 9.75976 21283 ft 396 kts 328°
2026-05-08 15:46 43.58768 9.74119 20886 ft 395 kts 328°
2026-05-08 15:47 43.61158 9.72271 20495 ft 393 kts 328°
2026-05-08 15:47 43.63542 9.70426 20101 ft 392 kts 328°
2026-05-08 15:47 43.65917 9.68585 19705 ft 391 kts 328°
2026-05-08 15:47 43.68282 9.66751 19315 ft 389 kts 328°
2026-05-08 15:48 43.72965 9.63111 18550 ft 384 kts 328°
2026-05-08 15:48 43.75282 9.61309 18138 ft 381 kts 328°
2026-05-08 15:48 43.77578 9.59521 17700 ft 377 kts 328°
2026-05-08 15:49 43.79854 9.57744 17316 ft 373 kts 328°
2026-05-08 15:49 43.82103 9.55983 16930 ft 370 kts 328°
2026-05-08 15:49 43.84340 9.54230 16556 ft 368 kts 329°
2026-05-08 15:49 43.86561 9.52488 16165 ft 366 kts 329°
2026-05-08 15:50 43.88770 9.50754 15804 ft 364 kts 329°
2026-05-08 15:50 43.90941 9.49049 15438 ft 363 kts 329°
2026-05-08 15:50 43.93135 9.47325 15070 ft 362 kts 329°
2026-05-08 15:50 43.95323 9.45604 14703 ft 361 kts 330°
2026-05-08 15:51 43.97468 9.43807 14328 ft 360 kts 322°
2026-05-08 15:51 43.99213 9.41333 13954 ft 360 kts 305°
2026-05-08 15:51 44.00486 9.38349 13580 ft 359 kts 299°
2026-05-08 15:51 44.01673 9.35297 13159 ft 359 kts 298°
2026-05-08 15:52 44.02841 9.32241 12758 ft 357 kts 298°
2026-05-08 15:52 44.04005 9.29202 12379 ft 356 kts 298°
2026-05-08 15:52 44.05168 9.26182 12009 ft 354 kts 298°
2026-05-08 15:52 44.06333 9.23172 11645 ft 352 kts 298°
2026-05-08 15:53 44.07494 9.20183 11274 ft 351 kts 298°
2026-05-08 15:53 44.08652 9.17205 10905 ft 349 kts 298°
2026-05-08 15:53 44.09797 9.14264 10541 ft 344 kts 298°
2026-05-08 15:53 44.10926 9.11364 10184 ft 338 kts 298°
2026-05-08 15:54 44.12027 9.08534 10022 ft 327 kts 298°
2026-05-08 15:54 44.13100 9.05774 9668 ft 322 kts 298°
2026-05-08 15:54 44.14157 9.03051 9326 ft 317 kts 298°
2026-05-08 15:54 44.15198 9.00368 8987 ft 313 kts 298°
2026-05-08 15:55 44.16227 8.97712 8661 ft 309 kts 298°
2026-05-08 15:55 44.18247 8.92492 8024 ft 304 kts 298°
2026-05-08 15:55 44.19244 8.89912 7720 ft 302 kts 298°
2026-05-08 15:56 44.20234 8.87346 7408 ft 300 kts 298°
2026-05-08 15:56 44.21217 8.84797 7102 ft 297 kts 298°
2026-05-08 15:56 44.22185 8.82287 6936 ft 289 kts 298°
2026-05-08 15:56 44.23121 8.79857 6795 ft 280 kts 298°
2026-05-08 15:57 44.24034 8.77484 6682 ft 275 kts 298°
2026-05-08 15:57 44.24926 8.75166 6561 ft 267 kts 298°
2026-05-08 15:57 44.25789 8.72917 6445 ft 259 kts 298°
2026-05-08 15:57 44.26633 8.70717 6205 ft 257 kts 297°
2026-05-08 15:58 44.27279 8.68413 5935 ft 255 kts 285°
2026-05-08 15:58 44.27718 8.66029 5675 ft 252 kts 284°
2026-05-08 15:58 44.28137 8.63690 5402 ft 245 kts 283°
2026-05-08 15:58 44.28743 8.61534 5125 ft 237 kts 310°
2026-05-08 15:59 44.30053 8.60274 4843 ft 229 kts 343°
2026-05-08 15:59 44.31605 8.60041 4521 ft 222 kts
2026-05-08 15:59 44.33091 8.60455 4184 ft 215 kts 14°
2026-05-08 15:59 44.34475 8.61052 3820 ft 206 kts 26°
2026-05-08 16:00 44.35509 8.62306 3509 ft 191 kts 51°
2026-05-08 16:00 44.36196 8.63834 3220 ft 182 kts 58°
2026-05-08 16:00 44.36812 8.65342 2962 ft 175 kts 57°
2026-05-08 16:00 44.37416 8.66816 2739 ft 174 kts 57°
2026-05-08 16:01 44.37999 8.68245 2477 ft 162 kts 58°
2026-05-08 16:01 44.38530 8.69557 2222 ft 149 kts 58°
2026-05-08 16:01 44.39032 8.70788 1993 ft 142 kts 58°
2026-05-08 16:01 44.39508 8.71955 1782 ft 137 kts 58°
2026-05-08 16:02 44.39991 8.73136 1591 ft 142 kts 59°
2026-05-08 16:02 44.40481 8.74339 1371 ft 142 kts 59°
2026-05-08 16:02 44.40973 8.75531 1137 ft 141 kts 58°
2026-05-08 16:02 44.41464 8.76719 922 ft 141 kts 57°
2026-05-08 16:03 44.41892 8.77939 752 ft 138 kts 71°
2026-05-08 16:03 44.42018 8.79275 529 ft 141 kts 87°
2026-05-08 16:03 44.41894 8.80634 339 ft 140 kts 102°
2026-05-08 16:03 44.41633 8.81928 118 ft 135 kts 102°
2026-05-08 16:04 44.41400 8.83142 22 ft 117 kts 106°
2026-05-08 16:04 44.41243 8.83944 19 ft 54 kts 105°
2026-05-08 16:04 44.41168 8.84326 21 ft 38 kts 105°
2026-05-08 16:04 44.41105 8.84651 19 ft 27 kts 105°
2026-05-08 16:05 44.41085 8.84813 19 ft 11 kts 71°
2026-05-08 16:05 44.41141 8.84878 18 ft 11 kts 26°
2026-05-08 16:05 44.41210 8.84908 20 ft 10 kts 15°
2026-05-08 16:05 44.41277 8.84934 19 ft 10 kts 15°
2026-05-08 16:06 44.41334 8.84964 21 ft 7 kts 45°
2026-05-08 16:06 44.41355 8.85013 20 ft 6 kts 35°
2026-05-08 16:06 44.41393 8.85030 19 ft 5 kts 15°
2026-05-08 16:06 44.41415 8.85038 19 ft 1 kts 15°
2026-05-08 16:07 44.41417 8.85038 19 ft 0 kts 15°